• In Belgien
  • Länderverzeichnis
  • Für 7 Tage
  • Wassertemperatur
  • Satellitenkarten
  • Wetterkarte
  • Widgets
  • user-avatar
    Anmelden

    Stündliche Wetter Ronse

    Heute, 18 Februar, Sonntag

    Zeit Temperatur Niederschläge Wind Luftdruck Luftfeuchtigkeit
    00:00 +1°C° 0 mm 2 m/S 764 mmHg 77%
    01:00 +1°C° 0 mm 2 m/S 764 mmHg 78%
    02:00 +1°C° 0 mm 2 m/S 764 mmHg 80%
    03:00 +1°C° 0 mm 2 m/S 764 mmHg 82%
    04:00 +1°C° 0 mm 2 m/S 764 mmHg 83%
    05:00 -1°C° 0 mm 2 m/S 764 mmHg 85%
    06:00 -1°C° 0 mm 2 m/S 764 mmHg 87%
    07:00 0°C° 0 mm 3 m/S 764 mmHg 83%
    08:00 +1°C° 0 mm 3 m/S 764 mmHg 80%
    09:00 +2°C° 0 mm 3 m/S 764 mmHg 76%
    10:00 +4°C° 0 mm 3 m/S 764 mmHg 71%
    11:00 +5°C° 0 mm 3 m/S 764 mmHg 66%
    12:00 +7°C° 0 mm 3 m/S 764 mmHg 61%
    13:00 +8°C° 0 mm 3 m/S 763 mmHg 61%
    14:00 +8°C° 0 mm 3 m/S 763 mmHg 60%
    15:00 +8°C° 0 mm 3 m/S 763 mmHg 60%
    16:00 +7°C° 0 mm 3 m/S 763 mmHg 66%
    17:00 +4°C° 0 mm 3 m/S 763 mmHg 72%
    18:00 +4°C° 0 mm 2 m/S 763 mmHg 78%
    19:00 +4°C° 0 mm 2 m/S 763 mmHg 79%
    20:00 +2°C° 0 mm 3 m/S 763 mmHg 81%
    21:00 +2°C° 0 mm 3 m/S 762 mmHg 82%
    22:00 +1°C° 0 mm 3 m/S 762 mmHg 81%
    23:00 +1°C° 0 mm 3 m/S 762 mmHg 80%

    Morgen, 19 Februar, Montag

    Zeit Temperatur Niederschläge Wind Luftdruck Luftfeuchtigkeit
    00:00 +1°C° 0 mm 3 m/S 762 mmHg 79%
    01:00 +1°C° 0 mm 3 m/S 762 mmHg 79%
    02:00 +1°C° 0 mm 3 m/S 761 mmHg 78%
    03:00 0°C° 0 mm 3 m/S 761 mmHg 77%
    04:00 0°C° 0 mm 3 m/S 761 mmHg 76%
    05:00 0°C° 0 mm 3 m/S 761 mmHg 76%
    06:00 0°C° 0 mm 3 m/S 761 mmHg 75%
    07:00 +1°C° 0 mm 3 m/S 761 mmHg 74%
    08:00 +2°C° 0 mm 3 m/S 760 mmHg 72%
    09:00 +3°C° 0 mm 3 m/S 760 mmHg 70%
    10:00 +4°C° 0 mm 3 m/S 760 mmHg 69%
    11:00 +4°C° 0 mm 3 m/S 760 mmHg 68%
    12:00 +5°C° 0 mm 3 m/S 760 mmHg 67%
    13:00 +7°C° 0,1 mm 3 m/S 760 mmHg 70%
    14:00 +7°C° 0,1 mm 3 m/S 759 mmHg 72%
    15:00 +7°C° 0,1 mm 2 m/S 759 mmHg 75%
    16:00 +6°C° 0,3 mm 2 m/S 759 mmHg 79%
    17:00 +6°C° 0,3 mm 2 m/S 758 mmHg 83%
    18:00 +5°C° 0,3 mm 3 m/S 758 mmHg 87%
    19:00 +5°C° 0,8 mm 3 m/S 758 mmHg 88%
    20:00 +5°C° 0,8 mm 3 m/S 758 mmHg 90%
    21:00 +5°C° 0,8 mm 3 m/S 758 mmHg 91%
    22:00 +5°C° 1 mm 4 m/S 757 mmHg 92%
    23:00 +5°C° 1 mm 4 m/S 757 mmHg 93%

    übermorgen, 20 Februar, Dienstag

    Zeit Temperatur Niederschläge Wind Luftdruck Luftfeuchtigkeit
    00:00 +5°C° 1 mm 4 m/S 757 mmHg 94%
    01:00 +5°C° 0,5 mm 3 m/S 756 mmHg 94%
    02:00 +5°C° 0,5 mm 3 m/S 756 mmHg 94%
    03:00 +5°C° 0,5 mm 3 m/S 756 mmHg 94%
    04:00 +5°C° 0,5 mm 3 m/S 756 mmHg 94%
    05:00 +4°C° 0,5 mm 3 m/S 756 mmHg 94%
    06:00 +4°C° 0,5 mm 3 m/S 756 mmHg 94%
    07:00 +4°C° 0,4 mm 3 m/S 756 mmHg 92%
    08:00 +4°C° 0,4 mm 3 m/S 757 mmHg 90%
    09:00 +4°C° 0,4 mm 3 m/S 757 mmHg 89%
    10:00 +6°C° 0,1 mm 2 m/S 757 mmHg 85%
    11:00 +6°C° 0,1 mm 2 m/S 757 mmHg 82%
    12:00 +7°C° 0,1 mm 2 m/S 758 mmHg 78%
    13:00 +7°C° 0,1 mm 2 m/S 758 mmHg 78%
    14:00 +7°C° 0,1 mm 2 m/S 758 mmHg 79%
    15:00 +7°C° 0,1 mm 2 m/S 758 mmHg 79%
    16:00 +5°C° 0,2 mm 3 m/S 759 mmHg 81%
    17:00 +5°C° 0,2 mm 3 m/S 759 mmHg 84%
    18:00 +4°C° 0,2 mm 3 m/S 760 mmHg 86%
    19:00 +4°C° 0,1 mm 3 m/S 760 mmHg 85%
    20:00 +4°C° 0,1 mm 3 m/S 761 mmHg 84%
    21:00 +4°C° 0,1 mm 3 m/S 761 mmHg 83%
    22:00 +3°C° 0 mm 3 m/S 761 mmHg 83%
    23:00 +3°C° 0 mm 3 m/S 762 mmHg 83%

    21 Februar, Mittwoch

    Zeit Temperatur Niederschläge Wind Luftdruck Luftfeuchtigkeit
    00:00 +2°C° 0 mm 3 m/S 762 mmHg 84%
    01:00 +2°C° 0 mm 3 m/S 762 mmHg 84%
    02:00 +1°C° 0 mm 3 m/S 762 mmHg 85%
    03:00 0°C° 0 mm 3 m/S 762 mmHg 86%
    04:00 0°C° 0 mm 3 m/S 763 mmHg 86%
    05:00 -1°C° 0 mm 3 m/S 763 mmHg 86%
    06:00 -1°C° 0 mm 3 m/S 763 mmHg 86%
    07:00 0°C° 0 mm 3 m/S 763 mmHg 81%
    08:00 +1°C° 0 mm 3 m/S 764 mmHg 77%
    09:00 0°C° 0 mm 4 m/S 764 mmHg 72%
    10:00 +1°C° 0 mm 4 m/S 763 mmHg 67%
    11:00 +4°C° 0 mm 4 m/S 763 mmHg 62%
    12:00 +5°C° 0 mm 4 m/S 763 mmHg 57%
    13:00 +5°C° 0 mm 4 m/S 763 mmHg 57%
    14:00 +5°C° 0 mm 5 m/S 762 mmHg 56%
    15:00 +5°C° 0 mm 5 m/S 762 mmHg 56%
    16:00 +4°C° 0 mm 4 m/S 762 mmHg 62%
    17:00 +3°C° 0 mm 4 m/S 762 mmHg 67%
    18:00 +1°C° 0 mm 4 m/S 762 mmHg 72%
    19:00 +1°C° 0 mm 3 m/S 762 mmHg 74%
    20:00 +1°C° 0 mm 3 m/S 762 mmHg 75%
    21:00 0°C° 0 mm 3 m/S 762 mmHg 77%
    22:00 0°C° 0 mm 3 m/S 762 mmHg 78%
    23:00 -1°C° 0 mm 3 m/S 762 mmHg 79%

    22 Februar, Donnerstag

    Zeit Temperatur Niederschläge Wind Luftdruck Luftfeuchtigkeit
    00:00 -1°C° 0 mm 3 m/S 761 mmHg 80%
    01:00 -1°C° 0 mm 3 m/S 761 mmHg 81%
    02:00 -1°C° 0 mm 3 m/S 761 mmHg 82%
    03:00 -2°C° 0 mm 3 m/S 760 mmHg 82%
    04:00 -3°C° 0 mm 4 m/S 760 mmHg 82%
    05:00 -3°C° 0 mm 4 m/S 760 mmHg 81%
    06:00 -3°C° 0 mm 4 m/S 760 mmHg 81%
    07:00 -2°C° 0 mm 5 m/S 760 mmHg 75%
    08:00 -2°C° 0 mm 5 m/S 760 mmHg 69%
    09:00 -2°C° 0 mm 6 m/S 760 mmHg 64%
    10:00 -1°C° 0 mm 6 m/S 760 mmHg 60%
    11:00 +1°C° 0 mm 6 m/S 759 mmHg 56%
    12:00 +2°C° 0 mm 6 m/S 759 mmHg 52%
    13:00 +2°C° 0 mm 7 m/S 759 mmHg 51%
    14:00 +2°C° 0 mm 7 m/S 758 mmHg 51%
    15:00 +2°C° 0 mm 7 m/S 758 mmHg 50%
    16:00 +1°C° 0 mm 6 m/S 758 mmHg 52%
    17:00 -1°C° 0 mm 6 m/S 758 mmHg 53%
    18:00 -1°C° 0 mm 5 m/S 758 mmHg 55%
    19:00 -2°C° 0 mm 5 m/S 758 mmHg 56%
    20:00 -2°C° 0 mm 5 m/S 759 mmHg 57%
    21:00 -3°C° 0 mm 6 m/S 759 mmHg 59%
    22:00 -2°C° 0 mm 5 m/S 758 mmHg 62%
    23:00 -4°C° 0 mm 5 m/S 758 mmHg 66%

    23 Februar, Freitag

    Zeit Temperatur Niederschläge Wind Luftdruck Luftfeuchtigkeit
    00:00 -4°C° 0 mm 5 m/S 758 mmHg 69%
    01:00 -4°C° 0 mm 5 m/S 758 mmHg 71%
    02:00 -3°C° 0 mm 4 m/S 757 mmHg 74%
    03:00 -3°C° 0 mm 4 m/S 757 mmHg 76%
    04:00 -4°C° 0 mm 4 m/S 757 mmHg 78%
    05:00 -4°C° 0 mm 4 m/S 757 mmHg 81%
    06:00 -4°C° 0 mm 4 m/S 757 mmHg 83%
    07:00 -4°C° 0 mm 5 m/S 757 mmHg 78%
    08:00 -4°C° 0 mm 5 m/S 757 mmHg 72%
    09:00 -3°C° 0 mm 6 m/S 757 mmHg 67%
    10:00 -1°C° 0 mm 5 m/S 756 mmHg 62%
    11:00 -1°C° 0 mm 5 m/S 756 mmHg 57%
    12:00 0°C° 0 mm 5 m/S 756 mmHg 52%
    13:00 0°C° 0 mm 5 m/S 756 mmHg 50%
    14:00 +1°C° 0 mm 5 m/S 755 mmHg 49%
    15:00 +1°C° 0 mm 6 m/S 755 mmHg 48%
    16:00 0°C° 0 mm 5 m/S 755 mmHg 50%
    17:00 -1°C° 0 mm 5 m/S 755 mmHg 52%
    18:00 -2°C° 0 mm 4 m/S 756 mmHg 54%
    19:00 -3°C° 0 mm 4 m/S 756 mmHg 56%
    20:00 -3°C° 0 mm 4 m/S 756 mmHg 58%
    21:00 -5°C° 0 mm 5 m/S 757 mmHg 60%
    22:00 -5°C° 0 mm 5 m/S 757 mmHg 61%
    23:00 -5°C° 0 mm 4 m/S 757 mmHg 62%
    Mehr zeigen